﻿測定場所 (Monitoring sites),日付 (Measurement date),時間 (Measurement time),線量率 最大値 (max) μGy/h,線量率 最小値 (min) μGy/h,線量率 平均値 (average) μGy/h,
大田 (Ota),2013-02-10,23:01～24:00,0.0539,0.0477,0.0502,
大田 (Ota),2013-02-10,22:01～23:00,0.0542,0.0473,0.0502,
大田 (Ota),2013-02-10,21:01～22:00,0.0549,0.0463,0.0502,
大田 (Ota),2013-02-10,20:01～21:00,0.0530,0.0475,0.0502,
大田 (Ota),2013-02-10,19:01～20:00,0.0536,0.0458,0.0501,
大田 (Ota),2013-02-10,18:01～19:00,0.0536,0.0450,0.0502,
大田 (Ota),2013-02-10,17:01～18:00,0.0527,0.0467,0.0494,
大田 (Ota),2013-02-10,16:01～17:00,0.0524,0.0466,0.0497,
大田 (Ota),2013-02-10,15:01～16:00,0.0540,0.0473,0.0500,
大田 (Ota),2013-02-10,14:01～15:00,0.0532,0.0460,0.0498,
大田 (Ota),2013-02-10,13:01～14:00,0.0551,0.0474,0.0509,
大田 (Ota),2013-02-10,12:01～13:00,0.0536,0.0465,0.0505,
大田 (Ota),2013-02-10,11:01～12:00,0.0552,0.0490,0.0513,
大田 (Ota),2013-02-10,10:01～11:00,0.0549,0.0470,0.0508,
大田 (Ota),2013-02-10,09:01～10:00,0.0548,0.0474,0.0505,
大田 (Ota),2013-02-10,08:01～09:00,0.0554,0.0473,0.0502,
大田 (Ota),2013-02-10,07:01～08:00,0.0556,0.0474,0.0502,
大田 (Ota),2013-02-10,06:01～07:00,0.0535,0.0474,0.0501,
大田 (Ota),2013-02-10,05:01～06:00,0.0530,0.0460,0.0497,
大田 (Ota),2013-02-10,04:01～05:00,0.0535,0.0472,0.0499,
大田 (Ota),2013-02-10,03:01～04:00,0.0531,0.0459,0.0495,
大田 (Ota),2013-02-10,02:01～03:00,0.0540,0.0459,0.0499,
大田 (Ota),2013-02-10,01:01～02:00,0.0535,0.0457,0.0499,
大田 (Ota),2013-02-10,00:01～01:00,0.0529,0.0468,0.0501,
大田 (Ota),2013-02-09,23:01～24:00,0.0530,0.0465,0.0500,
大田 (Ota),2013-02-09,22:01～23:00,0.0533,0.0465,0.0496,
大田 (Ota),2013-02-09,21:01～22:00,0.0532,0.0456,0.0497,
大田 (Ota),2013-02-09,20:01～21:00,0.0536,0.0464,0.0497,
大田 (Ota),2013-02-09,19:01～20:00,0.0528,0.0456,0.0494,
大田 (Ota),2013-02-09,18:01～19:00,0.0547,0.0468,0.0498,
大田 (Ota),2013-02-09,17:01～18:00,0.0530,0.0460,0.0500,
大田 (Ota),2013-02-09,16:01～17:00,0.0536,0.0470,0.0498,
大田 (Ota),2013-02-09,15:01～16:00,0.0540,0.0467,0.0503,
大田 (Ota),2013-02-09,14:01～15:00,0.0543,0.0472,0.0500,
大田 (Ota),2013-02-09,13:01～14:00,0.0533,0.0466,0.0504,
大田 (Ota),2013-02-09,12:01～13:00,0.0551,0.0462,0.0502,
大田 (Ota),2013-02-09,11:01～12:00,0.0535,0.0462,0.0499,
大田 (Ota),2013-02-09,10:01～11:00,0.0533,0.0468,0.0499,
大田 (Ota),2013-02-09,09:01～10:00,0.0529,0.0471,0.0500,
大田 (Ota),2013-02-09,08:01～09:00,0.0527,0.0466,0.0499,
大田 (Ota),2013-02-09,07:01～08:00,0.0523,0.0469,0.0496,
大田 (Ota),2013-02-09,06:01～07:00,0.0533,0.0461,0.0493,
大田 (Ota),2013-02-09,05:01～06:00,0.0534,0.0460,0.0495,
大田 (Ota),2013-02-09,04:01～05:00,0.0525,0.0456,0.0496,
大田 (Ota),2013-02-09,03:01～04:00,0.0524,0.0452,0.0494,
大田 (Ota),2013-02-09,02:01～03:00,0.0530,0.0462,0.0496,
大田 (Ota),2013-02-09,01:01～02:00,0.0536,0.0463,0.0494,
大田 (Ota),2013-02-09,00:01～01:00,0.0541,0.0467,0.0496,
大田 (Ota),2013-02-08,23:01～24:00,0.0521,0.0477,0.0496,
大田 (Ota),2013-02-08,22:01～23:00,0.0530,0.0459,0.0496,
大田 (Ota),2013-02-08,21:01～22:00,0.0528,0.0469,0.0499,
大田 (Ota),2013-02-08,20:01～21:00,0.0533,0.0462,0.0499,
大田 (Ota),2013-02-08,19:01～20:00,0.0529,0.0464,0.0497,
大田 (Ota),2013-02-08,18:01～19:00,0.0528,0.0454,0.0500,
大田 (Ota),2013-02-08,17:01～18:00,0.0530,0.0465,0.0496,
大田 (Ota),2013-02-08,16:01～17:00,0.0529,0.0477,0.0501,
大田 (Ota),2013-02-08,15:01～16:00,0.0542,0.0468,0.0500,
大田 (Ota),2013-02-08,14:01～15:00,0.0529,0.0464,0.0499,
大田 (Ota),2013-02-08,13:01～14:00,0.0535,0.0476,0.0502,
大田 (Ota),2013-02-08,12:01～13:00,0.0547,0.0466,0.0503,
大田 (Ota),2013-02-08,11:01～12:00,0.0538,0.0466,0.0502,
大田 (Ota),2013-02-08,10:01～11:00,0.0530,0.0461,0.0501,
大田 (Ota),2013-02-08,09:01～10:00,0.0525,0.0466,0.0497,
大田 (Ota),2013-02-08,08:01～09:00,0.0549,0.0455,0.0498,
大田 (Ota),2013-02-08,07:01～08:00,0.0524,0.0463,0.0496,
大田 (Ota),2013-02-08,06:01～07:00,0.0530,0.0466,0.0501,
大田 (Ota),2013-02-08,05:01～06:00,0.0534,0.0461,0.0499,
大田 (Ota),2013-02-08,04:01～05:00,0.0534,0.0460,0.0500,
大田 (Ota),2013-02-08,03:01～04:00,0.0524,0.0466,0.0501,
大田 (Ota),2013-02-08,02:01～03:00,0.0537,0.0466,0.0504,
大田 (Ota),2013-02-08,01:01～02:00,0.0548,0.0469,0.0502,
大田 (Ota),2013-02-08,00:01～01:00,0.0533,0.0465,0.0500,
大田 (Ota),2013-02-07,23:01～24:00,0.0535,0.0459,0.0501,
大田 (Ota),2013-02-07,22:01～23:00,0.0530,0.0466,0.0498,
大田 (Ota),2013-02-07,21:01～22:00,0.0531,0.0459,0.0497,
大田 (Ota),2013-02-07,20:01～21:00,0.0536,0.0468,0.0502,
大田 (Ota),2013-02-07,19:01～20:00,0.0526,0.0468,0.0499,
大田 (Ota),2013-02-07,18:01～19:00,0.0535,0.0464,0.0497,
大田 (Ota),2013-02-07,17:01～18:00,0.0538,0.0462,0.0500,
大田 (Ota),2013-02-07,16:01～17:00,0.0534,0.0462,0.0501,
大田 (Ota),2013-02-07,15:01～16:00,0.0536,0.0468,0.0499,
大田 (Ota),2013-02-07,14:01～15:00,0.0527,0.0463,0.0496,
大田 (Ota),2013-02-07,13:01～14:00,0.0543,0.0474,0.0503,
大田 (Ota),2013-02-07,12:01～13:00,0.0534,0.0474,0.0503,
大田 (Ota),2013-02-07,11:01～12:00,0.0540,0.0464,0.0499,
大田 (Ota),2013-02-07,10:01～11:00,0.0522,0.0455,0.0495,
大田 (Ota),2013-02-07,09:01～10:00,0.0525,0.0459,0.0491,
大田 (Ota),2013-02-07,08:01～09:00,0.0521,0.0457,0.0492,
大田 (Ota),2013-02-07,07:01～08:00,0.0535,0.0460,0.0493,
大田 (Ota),2013-02-07,06:01～07:00,0.0522,0.0454,0.0491,
大田 (Ota),2013-02-07,05:01～06:00,0.0526,0.0452,0.0496,
大田 (Ota),2013-02-07,04:01～05:00,0.0521,0.0464,0.0496,
大田 (Ota),2013-02-07,03:01～04:00,0.0532,0.0463,0.0492,
大田 (Ota),2013-02-07,02:01～03:00,0.0530,0.0462,0.0495,
大田 (Ota),2013-02-07,01:01～02:00,0.0519,0.0457,0.0493,
大田 (Ota),2013-02-07,00:01～01:00,0.0516,0.0458,0.0490,
大田 (Ota),2013-02-06,23:01～24:00,0.0517,0.0451,0.0489,
大田 (Ota),2013-02-06,22:01～23:00,0.0522,0.0460,0.0488,
大田 (Ota),2013-02-06,21:01～22:00,0.0527,0.0462,0.0488,
大田 (Ota),2013-02-06,20:01～21:00,0.0512,0.0458,0.0485,
大田 (Ota),2013-02-06,19:01～20:00,0.0532,0.0433,0.0489,
大田 (Ota),2013-02-06,18:01～19:00,0.0518,0.0440,0.0489,
大田 (Ota),2013-02-06,17:01～18:00,0.0525,0.0459,0.0500,
大田 (Ota),2013-02-06,16:01～17:00,0.0548,0.0473,0.0513,
大田 (Ota),2013-02-06,15:01～16:00,0.0560,0.0480,0.0520,
大田 (Ota),2013-02-06,14:01～15:00,0.0559,0.0498,0.0530,
大田 (Ota),2013-02-06,13:01～14:00,0.0579,0.0496,0.0547,
大田 (Ota),2013-02-06,12:01～13:00,0.0619,0.0534,0.0584,
大田 (Ota),2013-02-06,11:01～12:00,0.0601,0.0500,0.0560,
大田 (Ota),2013-02-06,10:01～11:00,0.0576,0.0498,0.0530,
大田 (Ota),2013-02-06,09:01～10:00,0.0657,0.0527,0.0595,
大田 (Ota),2013-02-06,08:01～09:00,0.0716,0.0605,0.0659,
大田 (Ota),2013-02-06,07:01～08:00,0.0714,0.0636,0.0673,
大田 (Ota),2013-02-06,06:01～07:00,0.0681,0.0584,0.0636,
大田 (Ota),2013-02-06,05:01～06:00,0.0674,0.0583,0.0621,
大田 (Ota),2013-02-06,04:01～05:00,0.0677,0.0607,0.0636,
大田 (Ota),2013-02-06,03:01～04:00,0.0678,0.0603,0.0642,
大田 (Ota),2013-02-06,02:01～03:00,0.0656,0.0537,0.0606,
大田 (Ota),2013-02-06,01:01～02:00,0.0606,0.0485,0.0543,
大田 (Ota),2013-02-06,00:01～01:00,0.0532,0.0475,0.0501,
大田 (Ota),2013-02-05,23:01～24:00,0.0542,0.0455,0.0496,
大田 (Ota),2013-02-05,22:01～23:00,0.0538,0.0452,0.0497,
大田 (Ota),2013-02-05,21:01～22:00,0.0544,0.0459,0.0499,
大田 (Ota),2013-02-05,20:01～21:00,0.0536,0.0478,0.0504,
大田 (Ota),2013-02-05,19:01～20:00,0.0553,0.0458,0.0502,
大田 (Ota),2013-02-05,18:01～19:00,0.0528,0.0478,0.0503,
大田 (Ota),2013-02-05,17:01～18:00,0.0534,0.0476,0.0502,
大田 (Ota),2013-02-05,16:01～17:00,0.0533,0.0459,0.0498,
大田 (Ota),2013-02-05,15:01～16:00,0.0532,0.0477,0.0503,
大田 (Ota),2013-02-05,14:01～15:00,0.0544,0.0468,0.0503,
大田 (Ota),2013-02-05,13:01～14:00,0.0537,0.0455,0.0498,
大田 (Ota),2013-02-05,12:01～13:00,0.0538,0.0477,0.0502,
大田 (Ota),2013-02-05,11:01～12:00,0.0565,0.0473,0.0506,
大田 (Ota),2013-02-05,10:01～11:00,0.0557,0.0452,0.0504,
大田 (Ota),2013-02-05,09:01～10:00,0.0540,0.0460,0.0504,
大田 (Ota),2013-02-05,08:01～09:00,0.0537,0.0469,0.0503,
大田 (Ota),2013-02-05,07:01～08:00,0.0547,0.0479,0.0504,
大田 (Ota),2013-02-05,06:01～07:00,0.0538,0.0474,0.0505,
大田 (Ota),2013-02-05,05:01～06:00,0.0556,0.0464,0.0501,
大田 (Ota),2013-02-05,04:01～05:00,0.0536,0.0477,0.0503,
大田 (Ota),2013-02-05,03:01～04:00,0.0533,0.0462,0.0502,
大田 (Ota),2013-02-05,02:01～03:00,0.0535,0.0459,0.0499,
大田 (Ota),2013-02-05,01:01～02:00,0.0544,0.0456,0.0500,
大田 (Ota),2013-02-05,00:01～01:00,0.0541,0.0461,0.0501,
大田 (Ota),2013-02-04,23:01～24:00,0.0540,0.0466,0.0503,
大田 (Ota),2013-02-04,22:01～23:00,0.0564,0.0471,0.0508,
大田 (Ota),2013-02-04,21:01～22:00,0.0546,0.0468,0.0507,
大田 (Ota),2013-02-04,20:01～21:00,0.0533,0.0469,0.0507,
大田 (Ota),2013-02-04,19:01～20:00,0.0548,0.0467,0.0504,
大田 (Ota),2013-02-04,18:01～19:00,0.0553,0.0465,0.0504,
大田 (Ota),2013-02-04,17:01～18:00,0.0552,0.0464,0.0502,
大田 (Ota),2013-02-04,16:01～17:00,0.0558,0.0483,0.0515,
大田 (Ota),2013-02-04,15:01～16:00,0.0550,0.0461,0.0509,
大田 (Ota),2013-02-04,14:01～15:00,0.0556,0.0472,0.0500,
大田 (Ota),2013-02-04,13:01～14:00,0.0549,0.0461,0.0505,
大田 (Ota),2013-02-04,12:01～13:00,0.0550,0.0476,0.0506,
大田 (Ota),2013-02-04,11:01～12:00,0.0555,0.0462,0.0509,
大田 (Ota),2013-02-04,10:01～11:00,0.0548,0.0469,0.0503,
大田 (Ota),2013-02-04,09:01～10:00,0.0532,0.0462,0.0505,
大田 (Ota),2013-02-04,08:01～09:00,0.0544,0.0475,0.0511,
大田 (Ota),2013-02-04,07:01～08:00,0.0538,0.0485,0.0508,
大田 (Ota),2013-02-04,06:01～07:00,0.0544,0.0464,0.0504,
大田 (Ota),2013-02-04,05:01～06:00,0.0534,0.0472,0.0502,
大田 (Ota),2013-02-04,04:01～05:00,0.0542,0.0478,0.0504,
大田 (Ota),2013-02-04,03:01～04:00,0.0543,0.0471,0.0503,
大田 (Ota),2013-02-04,02:01～03:00,0.0532,0.0471,0.0503,
大田 (Ota),2013-02-04,01:01～02:00,0.0543,0.0478,0.0508,
大田 (Ota),2013-02-04,00:01～01:00,0.0545,0.0478,0.0503,
